Fort Polk, LA

5:35 PM CDT on September 24, 2017 (GMT -0500)
Fort Polk

Weather History for KBKB - August, 2013

Change the Weather History Date:

Sunday, August 18, 2013

  Actual Average (KPOE) Record (KPOE)
Temperature  
Mean Temperature 80 °F -  
Max Temperature 90 °F 89 °F 105 °F (2011)
Min Temperature 70 °F 71 °F 62 °F (2004)
Cooling Degree Days 15    
Growing Degree Days 30 (Base 50)    
Moisture  
Dew Point 67 °F    
Average Humidity 69    
Maximum Humidity 91    
Minimum Humidity 40    
Precipitation  
Precipitation 0.00 in - - ()
Sea Level Pressure  
Sea Level Pressure 30.06 in    
Wind  
Wind Speed 1 mph (NNE)    
Max Wind Speed 7 mph    
Max Gust Speed -    
Visibility 9 miles    
Events      
Averages and records for this station are not official NWS values.
T = Trace of Precipitation, MM = Missing Value Source: NWS Daily Summary

Daily Weather History Graph

Daily Weather History Graph

Search for Another Location

Airport or City:

Trip Planner

Search our weather history database for the weather conditions in past years. The results will help you decide how hot, cold, wet, or windy it might be!

Date:

Astronomy

Aug. 18, 2013 Rise Set
Actual Time 6:39 AM CDT 7:50 PM CDT
Civil Twilight 6:14 AM CDT 8:15 PM CDT
Nautical Twilight 5:44 AM CDT 8:45 PM CDT
Astronomical Twilight 5:13 AM CDT 9:16 PM CDT
Moon 5:53 PM CDT (8/18) 3:55 AM CDT (8/18)
Length of Visible Light 14h 01m
Length of Day
13h 11m
Waxing Gibbous, 92% of the Moon is Illuminated
Aug 18
Waxing Gibbous
Aug 20
Full
Aug 28
Last Quarter
Sep 5
New
Sep 12
First Quarter

Hourly Weather History & Observations

Time (CDT) Temp. Heat Index Dew Point Humidity Pressure Visibility Wind Dir Wind Speed Gust Speed Precip Events Conditions
12:54 AM 73.0 °F - 69.1 °F 87% 30.05 in 9.0 mi Calm Calm - N/A   Clear
1:54 AM 72.0 °F - 69.1 °F 91% 30.05 in 7.0 mi Calm Calm - N/A   Clear
2:54 AM 71.1 °F - 68.0 °F 90% 30.04 in 5.0 mi Calm Calm - N/A   Clear
3:54 AM 71.1 °F - 68.0 °F 90% 30.04 in 5.0 mi Calm Calm - N/A   Clear
4:54 AM 71.1 °F - 68.0 °F 90% 30.05 in 5.0 mi Calm Calm - N/A   Clear
5:54 AM 70.0 °F - 66.9 °F 90% 30.06 in 4.0 mi Calm Calm - N/A   Clear
6:54 AM 70.0 °F - 66.9 °F 90% 30.07 in 4.0 mi Calm Calm - N/A   Clear
7:54 AM 73.0 °F - 68.0 °F 84% 30.08 in 8.0 mi NNE 5.8 mph - N/A   Clear
8:54 AM 75.9 °F - 69.1 °F 79% 30.09 in 10.0 mi Variable 3.5 mph - N/A   Clear
9:54 AM 81.0 °F 83.8 °F 68.0 °F 65% 30.09 in 10.0 mi Variable 5.8 mph - N/A   Clear
10:54 AM 84.9 °F 87.6 °F 66.9 °F 55% 30.10 in 10.0 mi Variable 6.9 mph - N/A   Scattered Clouds
11:54 AM 86.0 °F 88.8 °F 66.9 °F 53% 30.10 in 10.0 mi Variable 3.5 mph - N/A   Scattered Clouds
12:54 PM 88.0 °F 89.6 °F 64.9 °F 46% 30.09 in 10.0 mi Variable 4.6 mph - N/A   Partly Cloudy
1:54 PM 88.0 °F 89.6 °F 64.9 °F 46% 30.08 in 10.0 mi Variable 4.6 mph - N/A   Scattered Clouds
2:54 PM 90.0 °F 91.7 °F 64.9 °F 43% 30.07 in 10.0 mi Variable 4.6 mph - N/A   Clear
3:54 PM 90.0 °F 90.6 °F 63.0 °F 40% 30.06 in 10.0 mi Variable 3.5 mph - N/A   Partly Cloudy
4:54 PM 89.1 °F 89.3 °F 62.1 °F 40% 30.05 in 10.0 mi Calm Calm - N/A   Clear
5:54 PM 90.0 °F 91.3 °F 64.0 °F 42% 30.04 in 10.0 mi Variable 3.5 mph - N/A   Clear
6:54 PM 87.1 °F 88.9 °F 64.9 °F 48% 30.04 in 10.0 mi Calm Calm - N/A   Clear
7:54 PM 80.1 °F 82.3 °F 66.9 °F 64% 30.04 in 10.0 mi Calm Calm - N/A   Clear
8:54 PM 75.0 °F - 66.9 °F 76% 30.06 in 10.0 mi Calm Calm - N/A   Clear
9:54 PM 73.0 °F - 66.9 °F 81% 30.07 in 10.0 mi Calm Calm - N/A   Clear
10:54 PM 72.0 °F - 66.9 °F 84% 30.06 in 10.0 mi Calm Calm - N/A   Clear
11:54 PM 71.1 °F - 66.9 °F 87% 30.07 in 10.0 mi Calm Calm - N/A   Clear